| time (UTC) | temp C | wind direction | speed KPH | gust KPH | rain 1hr cm | rain 24hr cm | rain mn cm | humidity % | barometer mb |
| 20260502151844 | 5 | 291 | 3.2 | 11.3 | 0.00 | 0.00 | 0.00 | 39 | 1015.3 |
| 20260502151245 | 5 | 288 | 3.2 | 8.0 | 0.00 | 0.00 | 0.00 | 39 | 1015.2 |
| 20260502150645 | 5 | 18 | 1.6 | 11.3 | 0.00 | 0.00 | 0.00 | 40 | 1015.3 |
| 20260502123644 | 3 | 273 | 0.0 | 8.0 | 0.00 | 0.00 | 0.00 | 68 | 1015.5 |
| 20260502123044 | 3 | 283 | 0.0 | 8.0 | 0.00 | 0.00 | 0.00 | 70 | 1015.6 |
| 20260502122444 | 3 | 274 | 0.0 | 8.0 | 0.00 | 0.00 | 0.00 | 73 | |
| 20260502121844 | 3 | 334 | 0.0 | 8.0 | 0.00 | 0.00 | 0.00 | 75 | 1015.4 |
| 20260502121244 | 3 | 5 | 0.0 | 8.0 | 0.00 | 0.00 | 0.00 | 78 | 1015.5 |
| 20260502120644 | 3 | 336 | 1.6 | 11.3 | 0.00 | 0.00 | 0.00 | 82 | 1015.5 |
| 20260502115444 | 2 | 269 | 0.0 | 3.2 | 0.00 | 0.00 | 0.00 | 91 | 1015.4 |
| 20260502114844 | 2 | 282 | 0.0 | 3.2 | 0.00 | 0.00 | 0.00 | 92 | 1015.5 |
| 20260502114244 | 2 | 272 | 0.0 | 3.2 | 0.00 | 0.00 | 0.00 | 90 | 1015.5 |
| 20260502113644 | 1 | 0 | 0.0 | 0.0 | 0.00 | 0.00 | 0.00 | 90 | 1015.6 |
| 20260502113044 | 1 | 0 | 0.0 | 0.0 | 0.00 | 0.00 | 0.00 | 91 | 1015.4 |
| 20260502112444 | 0 | 0 | 0.0 | 0.0 | 0.00 | 0.00 | 0.00 | 90 | 1015.5 |
| 20260502111844 | 0 | 0 | 0.0 | 0.0 | 0.00 | 0.00 | 0.00 | 90 | |
| 20260502111244 | 0 | 0 | 0.0 | 0.0 | 0.00 | 0.00 | 0.00 | 91 | |
| 20260502110644 | 0 | 0 | 0.0 | 0.0 | 0.00 | 0.00 | 0.00 | 91 | 1015.5 |
| 20260502110045 | 0 | 0 | 0.0 | 0.0 | 0.00 | 0.00 | 0.00 | 90 | 1015.5 |
| 20260502105444 | 0 | 0 | 0.0 | 0.0 | 0.00 | 0.00 | 0.00 | 90 | 1015.4 |
| 20260502104845 | 0 | 0 | 0.0 | 0.0 | 0.00 | 0.00 | 0.00 | 89 | 1015.4 |
| 20260502104244 | 0 | 0 | 0.0 | 0.0 | 0.00 | 0.00 | 0.00 | 89 | 1015.4 |
| 20260502103644 | 0 | 0 | 0.0 | 0.0 | 0.00 | 0.00 | 0.00 | 88 | 1015.3 |
| 20260502103044 | 0 | 0 | 0.0 | 0.0 | 0.00 | 0.00 | 0.00 | 87 | 1015.3 |
| 20260502102444 | 0 | 0 | 0.0 | 0.0 | 0.00 | 0.00 | 0.00 | 85 | 1015.3 |
| 20260502101844 | 1 | 0 | 0.0 | 0.0 | 0.00 | 0.00 | 0.00 | 85 | 1015.3 |
| 20260502101244 | 1 | 0 | 0.0 | 0.0 | 0.00 | 0.00 | 0.00 | 84 | 1015.2 |
| 20260502100644 | 1 | 0 | 0.0 | 0.0 | 0.00 | 0.00 | 0.00 | 83 | 1015.1 |
| 20260502091244 | 2 | 0 | 0.0 | 0.0 | 0.00 | 0.00 | 0.00 | 79 | 1014.9 |
| 20260502071244 | 2 | 0 | 0.0 | 0.0 | 0.00 | 0.00 | 0.00 | 78 | 1014.5 |
| 20260502070644 | 2 | 214 | 0.0 | 3.2 | 0.00 | 0.00 | 0.00 | 77 | 1014.5 |
| 20260502070044 | 2 | 213 | 0.0 | 3.2 | 0.00 | 0.00 | 0.00 | 77 | 1014.5 |
| 20260502065444 | 2 | 206 | 0.0 | 3.2 | 0.00 | 0.00 | 0.00 | 75 | 1014.7 |
| 20260502064845 | 2 | 0 | 0.0 | 0.0 | 0.00 | 0.00 | 0.00 | 75 | 1014.7 |
| 20260502064244 | 2 | 111 | 0.0 | 3.2 | 0.00 | 0.00 | 0.00 | 74 | 1014.7 |
| 20260502063644 | 3 | 0 | 0.0 | 0.0 | 0.00 | 0.00 | 0.00 | 75 | 1014.8 |
| 20260502063044 | 3 | 119 | 0.0 | 3.2 | 0.00 | 0.00 | 0.00 | 75 | 1014.8 |
| 20260502062444 | 3 | 118 | 0.0 | 3.2 | 0.00 | 0.00 | 0.00 | 75 | |
| 20260502061844 | 3 | 0 | 0.0 | 0.0 | 0.00 | 0.00 | 0.00 | 75 | 1014.9 |
| 20260502061243 | 3 | 0 | 0.0 | 0.0 | 0.00 | 0.00 | 0.00 | 74 | 1014.8 |
| 20260502060644 | 3 | 0 | 0.0 | 0.0 | 0.00 | 0.00 | 0.00 | 72 | 1014.9 |
| 20260502060044 | 3 | 0 | 0.0 | 0.0 | 0.00 | 0.00 | 0.00 | 72 | 1014.9 |
| 20260502055444 | 3 | 63 | 0.0 | 3.2 | 0.00 | 0.00 | 0.00 | 72 | 1015.0 |
| 20260502054843 | 3 | 0 | 0.0 | 0.0 | 0.00 | 0.00 | 0.00 | 72 | 1014.9 |
| 20260502054244 | 3 | 124 | 0.0 | 3.2 | 0.00 | 0.00 | 0.00 | 72 | 1015.0 |
| 20260502053644 | 3 | 0 | 0.0 | 0.0 | 0.00 | 0.00 | 0.00 | 72 | 1015.0 |
| 20260502053044 | 3 | 0 | 0.0 | 0.0 | 0.00 | 0.00 | 0.00 | 72 | 1015.0 |
| 20260502052444 | 3 | 0 | 0.0 | 0.0 | 0.00 | 0.00 | 0.00 | 73 | 1014.9 |
| 20260502051844 | 3 | 0 | 0.0 | 0.0 | 0.00 | 0.00 | 0.00 | 73 | 1014.9 |
| 20260502051244 | 3 | 168 | 0.0 | 3.2 | 0.00 | 0.00 | 0.00 | 73 | |
| 20260502050644 | 3 | 0 | 0.0 | 0.0 | 0.00 | 0.00 | 0.00 | 73 | 1014.7 |
| 20260502050044 | 3 | 0 | 0.0 | 0.0 | 0.00 | 0.00 | 0.00 | 72 | 1014.7 |
| 20260502045444 | 3 | 169 | 0.0 | 3.2 | 0.00 | 0.00 | 0.00 | 71 | 1014.7 |
| 20260502044844 | 3 | 123 | 0.0 | 3.2 | 0.00 | 0.00 | 0.00 | 71 | 1014.5 |
| 20260502044243 | 3 | 121 | 0.0 | 3.2 | 0.00 | 0.00 | 0.00 | 70 | 1014.5 |
| 20260502043645 | 3 | 131 | 0.0 | 3.2 | 0.00 | 0.00 | 0.00 | 69 | 1014.5 |
| 20260502033643 | 4 | 55 | 0.0 | 8.0 | 0.00 | 0.00 | 0.00 | 64 | 1014.3 |
| 20260502033044 | 4 | 58 | 0.0 | 8.0 | 0.00 | 0.00 | 0.00 | 64 | 1014.2 |
| 20260502032444 | 4 | 72 | 1.6 | 8.0 | 0.00 | 0.00 | 0.00 | 62 | 1014.3 |
| 20260502031844 | 4 | 92 | 1.6 | 8.0 | 0.00 | 0.00 | 0.00 | 62 | 1014.2 |
| 20260502031243 | 4 | 67 | 3.2 | 19.3 | 0.00 | 0.00 | 0.00 | 61 | 1014.2 |
| 20260502030643 | 5 | 72 | 3.2 | 11.3 | 0.00 | 0.00 | 0.00 | 61 | 1014.1 |
| 20260502030044 | 5 | 66 | 3.2 | 11.3 | 0.00 | 0.00 | 0.00 | 61 | 1014.0 |
| 20260502025443 | 5 | 62 | 1.6 | 8.0 | 0.00 | 0.00 | 0.00 | 58 | 1014.0 |
| 20260502024844 | 5 | 52 | 3.2 | 19.3 | 0.00 | 0.00 | 0.00 | 53 | 1013.8 |
| 20260502024244 | 5 | 291 | 0.0 | 3.2 | 0.00 | 0.00 | 0.00 | 51 | 1013.7 |
| 20260502023644 | 5 | 57 | 0.0 | 11.3 | 0.00 | 0.00 | 0.00 | 52 | 1013.6 |
| 20260502023044 | 5 | 0 | 0.0 | 0.0 | 0.00 | 0.00 | 0.00 | 51 | 1013.7 |
| 20260502022444 | 6 | 274 | 0.0 | 3.2 | 0.00 | 0.00 | 0.00 | 51 | 1013.5 |
| 20260502021843 | 6 | 290 | 0.0 | 3.2 | 0.00 | 0.00 | 0.00 | 50 | 1013.4 |
| 20260502021243 | 6 | 278 | 0.0 | 8.0 | 0.00 | 0.00 | 0.00 | 51 | 1013.3 |
| 20260502020644 | 6 | 266 | 0.0 | 3.2 | 0.00 | 0.00 | 0.00 | 51 | 1013.3 |
| 20260502020043 | 6 | 274 | 0.0 | 8.0 | 0.00 | 0.00 | 0.00 | 51 | 1013.2 |
| 20260502015444 | 6 | 280 | 0.0 | 8.0 | 0.00 | 0.00 | 0.00 | 51 | 1013.1 |
| 20260502014844 | 6 | 295 | 0.0 | 8.0 | 0.00 | 0.00 | 0.00 | 51 | 1013.2 |
| 20260502014243 | 6 | 275 | 0.0 | 3.2 | 0.00 | 0.00 | 0.00 | 51 | 1013.1 |
| 20260502013643 | 6 | 267 | 0.0 | 8.0 | 0.00 | 0.00 | 0.00 | 51 | 1013.1 |
| 20260502013043 | 6 | 271 | 0.0 | 3.2 | 0.00 | 0.00 | 0.00 | 51 | 1013.1 |
| 20260502012443 | 6 | 274 | 0.0 | 3.2 | 0.00 | 0.00 | 0.00 | 52 | 1012.9 |
| 20260502011845 | 6 | 279 | 0.0 | 3.2 | 0.00 | 0.00 | 0.00 | 52 | 1012.9 |
| 20260502011244 | 6 | 284 | 0.0 | 3.2 | 0.00 | 0.00 | 0.00 | 51 | 1012.9 |
| 20260502010643 | 6 | 286 | 0.0 | 3.2 | 0.00 | 0.00 | 0.00 | 51 | 1012.9 |
| 20260502010044 | 6 | 273 | 0.0 | 3.2 | 0.00 | 0.00 | 0.00 | 51 | 1012.8 |
| 20260502005443 | 6 | 275 | 0.0 | 3.2 | 0.00 | 0.00 | 0.00 | 51 | 1012.7 |
| 20260502004844 | 6 | 270 | 0.0 | 3.2 | 0.00 | 0.00 | 0.00 | 51 | 1012.7 |
| 20260502004244 | 6 | 283 | 0.0 | 3.2 | 0.00 | 0.00 | 0.00 | 51 | 1012.7 |
| 20260502003643 | 6 | 278 | 0.0 | 3.2 | 0.00 | 0.00 | 0.00 | 51 | 1012.7 |
| 20260502003045 | 6 | 265 | 0.0 | 3.2 | 0.00 | 0.00 | 0.00 | 51 | 1012.6 |
| 20260502002445 | 6 | 277 | 0.0 | 8.0 | 0.00 | 0.00 | 0.00 | 50 | 1012.5 |
| 20260502001245 | 6 | 312 | 0.0 | 8.0 | 0.00 | 0.00 | 0.00 | 50 | 1012.4 |
| 20260502000647 | 6 | 319 | 0.0 | 8.0 | 0.00 | 0.00 | 0.00 | 50 | 1012.3 |
| 20260502000045 | 6 | 294 | 1.6 | 8.0 | 0.00 | 0.00 | 0.00 | 50 | 1012.4 |
| 20260501235444 | 6 | 310 | 0.0 | 3.2 | 0.00 | 0.00 | 0.00 | 50 | 1012.2 |
| 20260501234844 | 6 | 299 | 0.0 | 3.2 | 0.00 | 0.00 | 0.00 | 50 | 1012.2 |
| 20260501234245 | 6 | 290 | 1.6 | 8.0 | 0.00 | 0.00 | 0.00 | 49 | 1012.1 |
| 20260501233644 | 6 | 322 | 1.6 | 11.3 | 0.00 | 0.00 | 0.00 | 49 | 1012.2 |
| 20260501233045 | 7 | 273 | 3.2 | 11.3 | 0.00 | 0.00 | 0.00 | 49 | 1012.2 |
| 20260501232445 | 7 | 281 | 1.6 | 11.3 | 0.00 | 0.00 | 0.00 | 50 | 1012.1 |
| 20260501231844 | 7 | 284 | 1.6 | 8.0 | 0.00 | 0.00 | 0.00 | 50 | 1012.1 |
| 20260501231245 | 7 | 285 | 0.0 | 8.0 | 0.00 | 0.00 | 0.00 | 51 | 1012.2 |
| 20260501230644 | 7 | 303 | 1.6 | 8.0 | 0.00 | 0.00 | 0.00 | 51 | 1012.1 |
| 20260501230044 | 7 | 292 | 1.6 | 8.0 | 0.00 | 0.00 | 0.00 | 50 | 1012.2 |
| 20260501225444 | 7 | 283 | 3.2 | 11.3 | 0.00 | 0.00 | 0.00 | 49 | 1012.2 |
| 20260501224844 | 7 | 296 | 1.6 | 8.0 | 0.00 | 0.00 | 0.00 | 49 | 1012.1 |
| 20260501224245 | 7 | 308 | 0.0 | 8.0 | 0.00 | 0.00 | 0.00 | 49 | 1012.1 |
| 20260501223646 | 7 | 287 | 1.6 | 11.3 | 0.00 | 0.00 | 0.00 | 49 | 1012.1 |
| 20260501223045 | 7 | 282 | 0.0 | 11.3 | 0.00 | 0.00 | 0.00 | 50 | 1012.1 |
| 20260501222444 | 7 | 281 | 1.6 | 8.0 | 0.00 | 0.00 | 0.00 | 50 | 1011.8 |
| 20260501221844 | 7 | 337 | 1.6 | 11.3 | 0.00 | 0.00 | 0.00 | 50 | 1011.7 |
| 20260501221244 | 7 | 8 | 1.6 | 8.0 | 0.00 | 0.00 | 0.00 | 51 | 1011.8 |
| 20260501220644 | 7 | 281 | 0.0 | 8.0 | 0.00 | 0.00 | 0.00 | 51 | 1011.7 |
| 20260501220045 | 7 | 328 | 1.6 | 8.0 | 0.00 | 0.00 | 0.00 | 50 | 1011.7 |
| 20260501215444 | 7 | 271 | 1.6 | 16.1 | 0.00 | 0.00 | 0.00 | 46 | 1011.5 |
| 20260501214844 | 8 | 296 | 1.6 | 11.3 | 0.00 | 0.00 | 0.00 | 44 | 1011.4 |
| 20260501214244 | 8 | 272 | 1.6 | 11.3 | 0.00 | 0.00 | 0.00 | 42 | 1011.3 |
| 20260501213644 | 8 | 349 | 0.0 | 3.2 | 0.00 | 0.00 | 0.00 | 43 | 1011.3 |
| 20260501213045 | 8 | 274 | 1.6 | 11.3 | 0.00 | 0.00 | 0.00 | 43 | 1011.3 |
| 20260501212444 | 8 | 309 | 1.6 | 11.3 | 0.00 | 0.00 | 0.00 | 45 | 1011.2 |
| 20260501211845 | 8 | 344 | 0.0 | 8.0 | 0.00 | 0.00 | 0.00 | 46 | 1011.2 |
| 20260501211245 | 8 | 297 | 0.0 | 8.0 | 0.00 | 0.00 | 0.00 | 46 | 1011.1 |
| 20260501210644 | 8 | 286 | 1.6 | 8.0 | 0.00 | 0.00 | 0.00 | 46 | 1011.1 |
| 20260501210044 | 8 | 340 | 3.2 | 16.1 | 0.00 | 0.00 | 0.00 | 45 | 1011.1 |
| 20260501205444 | 8 | 280 | 1.6 | 8.0 | 0.00 | 0.00 | 0.00 | 45 | 1011.1 |
| 20260501204844 | 8 | 285 | 1.6 | 8.0 | 0.00 | 0.00 | 0.00 | 45 | 1011.1 |
| 20260501204244 | 8 | 301 | 1.6 | 11.3 | 0.00 | 0.00 | 0.00 | 44 | 1011.1 |
| 20260501203644 | 8 | 286 | 1.6 | 11.3 | 0.00 | 0.00 | 0.00 | 44 | 1011.0 |
| 20260501203044 | 8 | 266 | 0.0 | 8.0 | 0.00 | 0.00 | 0.00 | 44 | 1010.9 |
| 20260501202445 | 9 | 286 | 1.6 | 11.3 | 0.00 | 0.00 | 0.00 | 46 | 1011.0 |
| 20260501201846 | 8 | 275 | 1.6 | 3.2 | 0.00 | 0.00 | 0.00 | 46 | 1011.0 |
| 20260501201245 | 8 | 3 | 1.6 | 8.0 | 0.00 | 0.00 | 0.00 | 48 | 1011.0 |
| 20260501200644 | 8 | 305 | 0.0 | 3.2 | 0.00 | 0.00 | 0.00 | 48 | 1011.0 |
| 20260501200045 | 8 | 281 | 3.2 | 11.3 | 0.00 | 0.00 | 0.00 | 46 | 1011.1 |
| 20260501195444 | 8 | 275 | 3.2 | 8.0 | 0.00 | 0.00 | 0.00 | 43 | 1010.9 |
| 20260501194844 | 9 | 281 | 1.6 | 8.0 | 0.00 | 0.00 | 0.00 | 43 | 1010.8 |
| 20260501194245 | 8 | 269 | 1.6 | 8.0 | 0.00 | 0.00 | 0.00 | 43 | 1010.7 |
| 20260501193645 | 8 | 359 | 1.6 | 8.0 | 0.00 | 0.00 | 0.00 | 43 | 1010.8 |
| 20260501193045 | 8 | 267 | 3.2 | 8.0 | 0.00 | 0.00 | 0.00 | 43 | 1010.9 |
| 20260501192444 | 8 | 303 | 1.6 | 8.0 | 0.00 | 0.00 | 0.00 | 45 | 1010.8 |
| 20260501191844 | 8 | 277 | 1.6 | 11.3 | 0.00 | 0.00 | 0.00 | 45 | 1010.9 |
| 20260501191244 | 8 | 295 | 1.6 | 8.0 | 0.00 | 0.00 | 0.00 | 44 | 1010.8 |
| 20260501190645 | 8 | 298 | 0.0 | 8.0 | 0.00 | 0.00 | 0.00 | 44 | 1010.7 |
| 20260501190045 | 8 | 318 | 3.2 | 11.3 | 0.00 | 0.00 | 0.00 | 44 | 1010.7 |
| 20260501185444 | 8 | 7 | 3.2 | 11.3 | 0.00 | 0.00 | 0.00 | 45 | 1010.6 |
| 20260501184844 | 8 | 18 | 3.2 | 8.0 | 0.00 | 0.00 | 0.00 | 45 | 1010.5 |
| 20260501184245 | 8 | 344 | 1.6 | 11.3 | 0.00 | 0.00 | 0.00 | 46 | 1010.5 |
| 20260501183645 | 8 | 355 | 1.6 | 8.0 | 0.00 | 0.00 | 0.00 | 45 | 1010.5 |
| 20260501183045 | 8 | 322 | 1.6 | 8.0 | 0.00 | 0.00 | 0.00 | 45 | 1010.5 |
| 20260501182445 | 8 | 357 | 1.6 | 8.0 | 0.00 | 0.00 | 0.00 | 43 | 1010.5 |
| 20260501181844 | 8 | 341 | 3.2 | 11.3 | 0.00 | 0.00 | 0.00 | 43 | 1010.4 |
| 20260501181245 | 8 | 359 | 1.6 | 11.3 | 0.00 | 0.00 | 0.00 | 44 | 1010.4 |
| 20260501180644 | 8 | 20 | 1.6 | 8.0 | 0.00 | 0.00 | 0.00 | 43 | 1010.4 |
| 20260501180045 | 8 | 10 | 4.8 | 19.3 | 0.00 | 0.00 | 0.00 | 42 | 1010.4 |
| 20260501175444 | 9 | 309 | 3.2 | 11.3 | 0.00 | 0.00 | 0.00 | 40 | 1010.2 |
| 20260501174844 | 8 | 351 | 1.6 | 11.3 | 0.00 | 0.00 | 0.00 | 39 | 1010.2 |
| 20260501174244 | 9 | 347 | 3.2 | 16.1 | 0.00 | 0.00 | 0.00 | 39 | 1010.2 |
| 20260501173644 | 9 | 273 | 1.6 | 8.0 | 0.00 | 0.00 | 0.00 | 39 | 1010.2 |
| 20260501173045 | 9 | 300 | 1.6 | 11.3 | 0.00 | 0.00 | 0.00 | 39 | 1010.0 |
| 20260501172444 | 8 | 359 | 0.0 | 8.0 | 0.00 | 0.00 | 0.00 | 41 | 1010.3 |
| 20260501171844 | 8 | 340 | 1.6 | 11.3 | 0.00 | 0.00 | 0.00 | 41 | 1010.3 |
| 20260501171244 | 8 | 338 | 1.6 | 8.0 | 0.00 | 0.00 | 0.00 | 41 | 1010.3 |
| 20260501170645 | 8 | 330 | 1.6 | 8.0 | 0.00 | 0.00 | 0.00 | 40 | 1010.2 |
| 20260501170045 | 9 | 316 | 1.6 | 8.0 | 0.00 | 0.00 | 0.00 | 41 | 1010.2 |
| 20260501165444 | 9 | 50 | 0.0 | 8.0 | 0.00 | 0.00 | 0.00 | 44 | 1010.2 |
| 20260501164844 | 8 | 23 | 0.0 | 3.2 | 0.00 | 0.00 | 0.00 | 44 | 1010.3 |
| 20260501164244 | 8 | 344 | 0.0 | 8.0 | 0.00 | 0.00 | 0.00 | 45 | 1010.4 |
| 20260501163644 | 8 | 357 | 0.0 | 8.0 | 0.00 | 0.00 | 0.00 | 47 | 1010.4 |
| 20260501163045 | 8 | 337 | 1.6 | 11.3 | 0.00 | 0.00 | 0.00 | 48 | 1010.4 |
| 20260501161844 | 8 | 55 | 0.0 | 8.0 | 0.00 | 0.00 | 0.00 | 52 | 1010.4 |
| 20260501161244 | 8 | 75 | 3.2 | 16.1 | 0.00 | 0.00 | 0.00 | 50 | 1010.4 |
| 20260501160644 | 8 | 33 | 1.6 | 8.0 | 0.00 | 0.00 | 0.00 | 52 | 1010.4 |
| 20260501160045 | 8 | 284 | 0.0 | 8.0 | 0.00 | 0.00 | 0.00 | 54 | 1010.5 |
| 20260501155444 | 7 | 348 | 0.0 | 8.0 | 0.00 | 0.00 | 0.00 | 54 | 1010.5 |
| 20260501154844 | 7 | 17 | 0.0 | 8.0 | 0.00 | 0.00 | 0.00 | 56 | 1010.6 |
| 20260501154244 | 7 | 51 | 3.2 | 11.3 | 0.00 | 0.00 | 0.00 | 55 | 1010.6 |